Location: Bushey
(51.6333°N, 0.3667°W)
Time: 14:08:50
(UTC+00:00)

Cosmos 2333 Rocket - Pass Details

Date: 03 March 2021
Orbit: 837 x 864 km, 70.8° (Epoch: 13 April)

Event Time Altitude Azimuth Distance (km) Brightness Sun altitude
Rises 20:31:04 0° 211° (SSW) 3,393 5.4 -25.9°
Reaches altitude 10° 20:33:30 10° 213° (SSW) 2,465 4.7 -26.3°
Maximum altitude 20:39:11 82° 300° (WNW) 866 2.2 -27.1°
Drops below altitude 10° 20:44:57 10° 30° (NNE) 2,500 4.6 -27.9°
Sets 20:47:25 0° 31° (NNE) 3,443 5.4 -28.2°
